TimeMST,TemperatureF,Dew PointF,Humidity,Sea Level PressureIn,VisibilityMPH,Wind Direction,Wind SpeedMPH,Gust SpeedMPH,PrecipitationIn,Events,Conditions,WindDirDegrees,DateUTC
12:16 AM,32.0,3.2,30,29.99,10.0,NW,15.0,19.6,N/A,,Scattered Clouds,310,2013-02-13 07:16:00
12:34 AM,33.8,3.2,28,29.99,10.0,NW,12.7,-,N/A,,Overcast,320,2013-02-13 07:34:00
12:56 AM,32.0,3.2,30,29.99,10.0,NW,10.4,-,N/A,,Overcast,320,2013-02-13 07:56:00
1:16 AM,32.0,5.0,32,29.98,10.0,WNW,16.1,-,N/A,,Scattered Clouds,300,2013-02-13 08:16:00
1:36 AM,28.4,5.0,37,29.98,10.0,SW,6.9,-,N/A,,Clear,230,2013-02-13 08:36:00
1:56 AM,28.4,5.0,37,29.97,10.0,Calm,Calm,-,N/A,,Clear,0,2013-02-13 08:56:00
2:16 AM,28.4,5.0,37,29.96,10.0,Calm,Calm,-,N/A,,Clear,0,2013-02-13 09:16:00
2:36 AM,28.4,5.0,37,29.94,10.0,Calm,Calm,-,N/A,,Clear,0,2013-02-13 09:36:00
2:56 AM,28.4,5.0,37,29.93,10.0,Calm,Calm,-,N/A,,Clear,0,2013-02-13 09:56:00
3:15 AM,28.4,5.0,37,29.92,10.0,Calm,Calm,-,N/A,,Clear,0,2013-02-13 10:15:00
3:36 AM,26.6,5.0,40,29.91,10.0,Calm,Calm,-,N/A,,Clear,0,2013-02-13 10:36:00
3:56 AM,28.4,5.0,37,29.91,10.0,Calm,Calm,-,N/A,,Clear,0,2013-02-13 10:56:00
4:16 AM,26.6,6.8,43,29.92,10.0,SE,3.5,-,N/A,,Clear,140,2013-02-13 11:16:00
4:36 AM,26.6,6.8,43,29.91,10.0,SSE,3.5,-,N/A,,Clear,160,2013-02-13 11:36:00
4:56 AM,28.4,8.6,43,29.91,10.0,Calm,Calm,-,N/A,,Clear,0,2013-02-13 11:56:00
6:50 AM,33.8,3.2,28,29.87,30.0,Calm,Calm,-,N/A,,Scattered Clouds,0,2013-02-13 13:50:00
7:48 AM,32.0,6.8,35,29.90,70.0,Calm,Calm,-,N/A,,Mostly Cloudy,0,2013-02-13 14:48:00
8:48 AM,32.0,8.6,38,29.90,70.0,SE,3.5,-,N/A,,Mostly Cloudy,130,2013-02-13 15:48:00
9:47 AM,44.6,3.2,18,29.91,70.0,West,20.7,25.3,N/A,,Mostly Cloudy,270,2013-02-13 16:47:00
9:55 AM,44.6,1.4,17,29.91,70.0,West,26.5,31.1,N/A,,Mostly Cloudy,270,2013-02-13 16:55:00
10:53 AM,41.0,5.0,23,29.94,70.0,West,26.5,39.1,N/A,,Mostly Cloudy,270,2013-02-13 17:53:00
11:47 AM,41.0,5.0,23,29.95,70.0,West,21.9,25.3,N/A,,Mostly Cloudy,280,2013-02-13 18:47:00
12:47 PM,46.4,5.0,18,29.94,70.0,West,11.5,17.3,N/A,,Mostly Cloudy,280,2013-02-13 19:47:00
1:52 PM,46.4,3.2,17,29.92,50.0,West,25.3,32.2,N/A,,Scattered Clouds,260,2013-02-13 20:52:00
3:53 PM,41.0,8.6,26,29.92,50.0,West,16.1,29.9,N/A,,Scattered Clouds,260,2013-02-13 22:53:00
4:53 PM,42.8,8.6,25,29.91,40.0,West,27.6,38.0,N/A,,Scattered Clouds,280,2013-02-13 23:53:00
5:55 PM,41.0,6.8,24,29.92,30.0,WNW,23.0,39.1,N/A,,Scattered Clouds,290,2013-02-14 00:55:00
6:50 PM,39.2,6.8,26,29.95,30.0,West,23.0,27.6,N/A,,Scattered Clouds,280,2013-02-14 01:50:00
7:53 PM,39.2,6.8,26,29.96,30.0,West,23.0,29.9,N/A,,Scattered Clouds,280,2013-02-14 02:53:00
8:47 PM,39.2,6.8,26,29.96,20.0,West,20.7,29.9,N/A,,Scattered Clouds,280,2013-02-14 03:47:00
9:49 PM,39.2,6.8,26,29.97,20.0,WNW,20.7,-,N/A,,Scattered Clouds,290,2013-02-14 04:49:00